This demonstration page uses our WeatherBlox Daily Observations layout. Learn more.

Hourly Observations for June 1, 2019

Temp ( °F °C ) Dew Point ( °F °C ) Humidity (%) Winds ( mph kmh ) Pressure ( in mb ) Visibility ( mi km ) Precip ( " mm )
12:15 am 00:15 Clear 72 22 61 16 69 69 N 6 9 29.85 1011 10 16.09344 0 0
12:35 am 00:35 Clear 72 22 61 16 69 69 NNE 7 11 29.83 1010 10 16.09344 0 0
12:55 am 00:55 Clear 72 22 61 16 69 69 N 8 13 29.83 1010 10 16.09344 0 0
1:15 am 01:15 Clear 72 22 61 16 69 69 NNE 8 13 29.83 1010 10 16.09344 0 0
1:35 am 01:35 Clear 72 22 59 15 65 65 NNE 9 15 29.83 1010 10 16.09344 0 0
1:55 am 01:55 Clear 72 22 59 15 65 65 SE 8 13 29.83 1010 10 16.09344 0 0
2:15 am 02:15 Clear 70 21 61 16 73 73 N 7 11 29.8 1009 10 16.09344 0 0
2:35 am 02:35 Clear 68 20 59 15 73 73 N 3 6 29.8 1009 10 16.09344 0 0
2:55 am 02:55 Clear 68 20 59 15 73 73 N 7 11 29.8 1009 10 16.09344 0 0
3:15 am 03:15 Clear 68 20 59 15 73 73 NNW 3 6 29.8 1009 10 16.09344 0 0
3:35 am 03:35 Clear 64 18 59 15 83 83 Calm 29.83 1010 10 16.09344 0 0
3:55 am 03:55 Clear 68 20 59 15 73 73 NNW 3 6 29.83 1010 10 16.09344 0 0
4:15 am 04:15 Clear 66 19 59 15 78 78 N 7 11 29.83 1010 10 16.09344 0 0
4:35 am 04:35 Clear 66 19 59 15 78 78 N 7 11 29.83 1010 10 16.09344 0 0
4:55 am 04:55 Partly Cloudy 66 19 59 15 78 78 N 6 9 29.83 1010 10 16.09344 0 0
5:15 am 05:15 Clear 64 18 59 15 83 83 N 3 6 29.85 1011 10 16.09344 0 0
5:35 am 05:35 Clear 64 18 59 15 83 83 Calm 29.85 1011 10 16.09344 0 0
5:55 am 05:55 Sunny 64 18 59 15 83 83 NNW 6 9 29.85 1011 10 16.09344 0 0
6:15 am 06:15 Sunny 64 18 59 15 83 83 NW 3 6 29.88 1012 10 16.09344 0 0
6:35 am 06:35 Sunny 64 18 59 15 83 83 Calm 29.88 1012 10 16.09344 0 0
6:55 am 06:55 Sunny 64 18 59 15 83 83 Calm 29.88 1012 10 16.09344 0 0
7:15 am 07:15 Sunny 66 19 59 15 78 78 Calm 29.88 1012 10 16.09344 0 0
7:35 am 07:35 Sunny 66 19 59 15 78 78 Calm 29.88 1012 10 16.09344 0 0
7:55 am 07:55 Sunny 68 20 59 15 73 73 N 3 6 29.88 1012 10 16.09344 0 0
8:15 am 08:15 Sunny 68 20 61 16 78 78 N 3 6 29.88 1012 10 16.09344 0 0
8:35 am 08:35 Sunny 70 21 59 15 69 69 N 5 7 29.88 1012 10 16.09344 0 0
8:55 am 08:55 Sunny 72 22 59 15 65 65 N 6 9 29.88 1012 10 16.09344 0 0
9:15 am 09:15 Sunny 73 23 59 15 61 61 N 7 11 29.88 1012 10 16.09344 0 0
9:35 am 09:35 Sunny 73 23 57 14 57 57 N 6 9 29.88 1012 10 16.09344 0 0
9:55 am 09:55 Sunny 75 24 59 15 57 57 N 6 9 29.88 1012 10 16.09344 0 0
10:15 am 10:15 Sunny 75 24 57 14 54 54 N 3 6 29.88 1012 10 16.09344 0 0
10:35 am 10:35 Sunny 77 25 57 14 51 51 NE 5 7 29.91 1013 10 16.09344 0 0
10:55 am 10:55 Sunny 77 25 57 14 51 51 NE 5 7 29.91 1013 10 16.09344 0 0
11:15 am 11:15 Sunny 79 26 57 14 48 48 NNE 5 7 29.91 1013 10 16.09344 0 0
11:35 am 11:35 Sunny 79 26 55 13 45 45 NW 3 6 29.88 1012 10 16.09344 0 0
12:15 pm 12:15 Sunny 81 27 55 13 42 42 NNW 6 9 29.88 1012 10 16.09344 0 0
12:35 pm 12:35 Sunny 81 27 54 12 39 39 N 6 9 29.88 1012 10 16.09344 0 0
12:55 pm 12:55 Sunny 81 27 55 13 42 42 NNW 5 7 29.88 1012 10 16.09344 0 0
1:15 pm 13:15 Sunny 81 27 54 12 39 39 Calm 29.85 1011 10 16.09344 0 0
1:35 pm 13:35 Sunny 82 28 57 14 42 42 N 8 13 29.85 1011 10 16.09344 0 0
1:55 pm 13:55 Sunny 81 27 55 13 42 42 Calm 29.85 1011 10 16.09344 0 0
2:15 pm 14:15 Sunny 82 28 61 16 48 48 WNW 5 7 29.83 1010 10 16.09344 0 0
2:35 pm 14:35 Sunny 82 28 61 16 48 48 NNW 8 13 29.83 1010 10 16.09344 0 0
2:55 pm 14:55 Sunny 82 28 59 15 45 45 N 5 7 29.83 1010 10 16.09344 0 0
3:15 pm 15:15 Sunny 82 28 59 15 45 45 NNE 6 9 29.83 1010 10 16.09344 0 0
3:35 pm 15:35 Sunny 82 28 57 14 42 42 N 3 6 29.83 1010 10 16.09344 0 0
3:55 pm 15:55 Sunny 86 30 59 15 40 40 Calm 29.8 1009 10 16.09344 0 0
4:15 pm 16:15 Sunny 84 29 59 15 43 43 N 3 6 29.8 1009 10 16.09344 0 0
4:35 pm 16:35 Partly Cloudy 86 30 59 15 40 40 SW 6 9 29.77 1008 10 16.09344 0 0
4:55 pm 16:55 Sunny 84 29 59 15 43 43 W 6 9 29.77 1008 10 16.09344 0 0
5:15 pm 17:15 Sunny 84 29 61 16 45 45 WNW 5 7 29.77 1008 10 16.09344 0 0
5:35 pm 17:35 Sunny 84 29 59 15 43 43 WSW 6 9 29.77 1008 10 16.09344 0 0
5:55 pm 17:55 Sunny 82 28 59 15 45 45 W 5 7 29.8 1009 10 16.09344 0 0
6:35 pm 18:35 Sunny 82 28 61 16 48 48 W 3 6 29.8 1009 10 16.09344 0 0
6:55 pm 18:55 Sunny 81 27 63 17 54 54 Calm 29.8 1009 10 16.09344 0 0
7:15 pm 19:15 Sunny 81 27 63 17 54 54 WSW 3 6 29.83 1010 10 16.09344 0 0
7:35 pm 19:35 Sunny with Nearby Thunderstorms 81 27 63 17 54 54 WSW 3 6 29.83 1010 10 16.09344 0 0
7:55 pm 19:55 Sunny 79 26 63 17 58 58 SW 5 7 29.83 1010 10 16.09344 0 0
8:15 pm 20:15 Sunny 79 26 63 17 58 58 WSW 3 6 29.83 1010 10 16.09344 0 0
8:35 pm 20:35 Clear 77 25 63 17 61 61 WSW 5 7 29.83 1010 10 16.09344 0 0
8:55 pm 20:55 Clear 75 24 63 17 65 65 SW 3 6 29.83 1010 10 16.09344 0 0
9:15 pm 21:15 Clear 73 23 63 17 69 69 W 6 9 29.83 1010 10 16.09344 0 0
9:35 pm 21:35 Clear 72 22 63 17 73 73 WSW 3 6 29.83 1010 10 16.09344 0 0
9:55 pm 21:55 Clear 73 23 63 17 69 69 WSW 3 6 29.83 1010 10 16.09344 0 0
10:15 pm 22:15 Partly Cloudy 72 22 63 17 73 73 W 5 7 29.83 1010 10 16.09344 0 0
10:35 pm 22:35 Mostly Cloudy 72 22 63 17 73 73 NW 3 6 29.83 1010 10 16.09344 0 0
10:55 pm 22:55 Partly Cloudy 73 23 61 16 65 65 Calm 29.83 1010 10 16.09344 0 0
11:15 pm 23:15 Clear 68 20 63 17 83 83 Calm 29.83 1010 10 16.09344 0 0
11:35 pm 23:35 Clear 70 21 63 17 78 78 Calm 29.83 1010 10 16.09344 0 0
11:55 pm 23:55 Clear 68 20 63 17 83 83 W 3 6 29.83 1010 10 16.09344 0 0

Powered by AerisWeather